Lid_Strength_Index
-1 -0 0 3 11 12 14 13 9 10 9 6 6 7 8 7 9 12 2 1 0 0 -0 -1 -1 -1 -1 -1 -1 -1 -1 -1 -1 -1 -1 -2 -2 -2 -2 -1 -2 -1 -1 -1 -1 -1 -2 -1 -1
4 2 2 6 13 16 15 10 11 9 7 5 6 6 7 9 5 4 3 1 0 -0 -0 -0 -1 -1 -1 -1 -1 -1 -1 -1 -1 -1 -1 -2 -2 -2 -2 -1 -2 -1 -1 -1 -1 -1 -1 -1 -1
2 2 7 10 13 16 15 10 10 7 6 6 7 5 6 8 4 3 1 0 -0 -0 -0 -0 -1 -1 -1 -1 -1 -1 -1 -1 -1 -1 -1 -1 -1 -1 -1 -1 -1 -1 -1 -1 -1 -1 -1 -1 -1
2 4 6 12 14 11 11 9 8 7 6 5 6 8 5 3 3 2 1 0 0 0 -0 -1 -1 -1 -1 -1 -1 -1 -1 -1 -1 -1 -1 -1 -1 -1 -1 -1 -1 -1 -1 -1 -1 -1 -1 -1 -1
2 6 11 13 13 10 9 7 7 8 7 7 6 8 7 3 2 1 1 0 1 0 -0 -0 -2 -1 -1 -1 -1 -1 -1 -1 -1 -1 -1 -1 -1 -1 -1 -1 -1 -1 -1 -1 -1 -1 -1 -1 -1
7 7 13 15 12 10 8 7 7 7 7 6 7 7 7 2 2 1 1 1 0 0 -0 -0 -1 -2 -1 -1 -1 -1 -1 -1 -1 -1 -1 -1 -1 -1 -1 -1 -1 -1 -1 -1 -1 -1 -1 -1 -1
8 10 12 12 12 11 8 5 7 7 7 7 5 9 6 4 2 1 1 0 0 -0 -0 -0 -0 -1 -1 -1 -1 -1 -1 -1 -1 -1 -1 -1 -1 -1 -1 -1 -1 -1 -1 -1 -1 -1 -1 -1 -1
6 9 12 11 12 11 6 6 5 6 7 4 4 9 8 4 2 1 1 1 0 0 0 0 1 0 0 -0 -1 -1 -1 -1 -1 -1 -1 -1 -1 -1 -1 -1 -1 -1 -1 -1 -1 -1 -1 -1 -1
4 11 13 12 11 10 6 7 4 4 6 5 4 5 4 2 2 2 2 2 1 1 0 0 0 0 0 0 -0 -1 -1 -1 -1 -1 -1 -1 -0 0 -0 -1 -1 -1 -1 -1 -1 -1 -1 -1 -1
7 11 11 8 8 9 7 7 7 7 7 7 6 4 3 2 3 3 4 3 3 2 1 1 0 0 0 -0 0 0 -0 0 0 0 0 -0 0 0 -1 -1 -1 -1 -1 -1 -1 -1 -1 -1 -0
7 10 8 7 6 6 7 7 6 7 9 7 7 5 4 3 3 4 3 3 3 2 1 1 0 -0 0 0 0 1 0 0 1 0 1 -0 -0 -0 -0 -0 0 -0 -1 -1 -1 -1 -1 -1 -1
9 6 6 6 6 6 7 6 7 7 7 5 4 4 4 4 4 4 3 3 2 2 1 1 0 0 0 0 0 0 1 0 1 0 -0 0 -0 0 -0 -0 -0 -0 -0 -0 -1 -0 -1 -1 -1
8 7 6 6 6 6 6 7 7 7 5 4 4 4 4 4 4 3 3 2 2 2 1 1 0 1 0 0 0 0 1 1 1 0 -0 -0 0 0 -0 0 -0 0 -0 0 0 1 1 0 -0
7 7 7 6 6 6 8 8 7 6 5 5 5 5 4 4 4 3 3 3 2 2 2 1 1 1 1 1 0 0 1 0 0 -0 0 0 0 0 1 -0 -0 -0 -0 -0 -0 1 2 1 1
6 9 7 7 7 8 7 10 9 6 5 6 5 5 4 4 3 3 3 3 2 2 1 1 1 0 1 1 1 1 1 1 1 -0 0 0 0 0 -0 0 -0 -0 0 -0 0 1 2 1 0
8 9 12 8 7 6 8 13 8 6 6 7 6 5 5 4 3 3 2 2 2 2 2 1 0 1 1 1 1 1 1 1 1 0 0 -0 -0 -0 -0 0 1 0 0 -0 0 2 1 1 1
9 14 13 11 7 8 9 12 8 6 6 7 6 6 5 4 4 3 2 2 2 2 1 2 1 1 1 1 1 1 0 0 0 0 1 0 0 -0 0 0 0 1 1 -0 0 0 1 1 1
12 12 11 12 9 9 10 10 8 7 7 7 7 6 5 5 4 3 2 2 2 1 2 2 1 1 1 1 1 1 1 0 0 0 -0 1 1 -1 -0 -0 0 1 1 1 0 1 1 1 2
10 10 10 10 8 10 10 10 9 8 7 7 7 7 6 5 4 3 2 2 2 2 2 2 2 2 1 2 2 2 2 1 1 1 1 0 0 -1 -0 -0 0 1 1 1 1 1 2 2 1
10 11 10 9 8 9 10 11 9 8 8 7 7 7 6 5 4 4 3 3 2 2 2 2 1 2 2 2 2 1 2 1 1 0 0 -0 0 -1 -0 0 1 1 1 1 1 2 2 2 3
9 12 10 10 8 9 9 12 11 8 7 7 6 6 5 5 5 4 4 3 2 2 2 2 1 2 2 2 2 1 1 2 2 1 1 1 -0 -0 1 0 1 0 1 2 2 3 2 3 2
14 8 8 8 11 13 10 15 13 10 10 8 7 6 6 5 4 4 4 3 3 2 2 1 1 1 1 2 1 2 2 3 2 2 1 1 0 1 0 1 -0 0 2 2 3 0 2 2 3
10 8 8 8 11 13 12 14 13 11 11 9 8 7 6 5 4 4 4 3 3 2 2 1 1 1 1 1 1 2 3 3 3 2 2 2 1 1 2 1 2 2 2 2 3 1 2 2 3
8 9 10 10 12 15 13 13 13 14 11 9 8 7 6 5 4 4 3 3 3 2 2 2 2 2 1 1 1 1 2 3 2 2 2 2 1 1 3 3 3 2 1 1 1 1 1 1 2
10 14 16 16 16 16 14 13 12 10 8 8 7 7 6 5 5 4 4 4 3 3 2 2 2 2 1 1 1 1 3 2 2 2 2 2 2 2 2 1 2 1 1 1 1 1 1 1 2
12 13 16 18 17 15 13 15 12 7 7 6 6 6 6 5 5 4 4 3 3 3 2 2 2 2 2 1 1 1 1 1 2 2 2 2 1 2 1 1 1 1 1 0 1 1 1 1 1
12 13 12 15 14 16 15 11 9 8 8 7 7 7 6 6 5 4 4 3 3 3 3 2 2 2 2 1 1 1 2 1 1 2 2 1 1 0 0 0 0 1 0 1 1 1 1 1 1
10 10 15 16 17 18 15 13 13 10 10 8 8 7 6 5 5 4 4 3 3 3 2 2 2 2 2 1 1 1 1 1 1 2 1 1 1 1 1 1 0 1 0 0 1 1 1 1 1
12 13 14 15 15 17 17 15 9 9 8 9 8 7 6 6 5 4 4 3 3 2 2 2 2 2 2 1 1 1 1 1 1 1 1 2 2 1 2 2 2 2 1 1 1 1 1 1 2
11 12 15 16 17 15 15 14 9 7 7 7 7 7 6 5 5 4 4 3 3 3 3 2 2 2 2 1 1 1 1 1 1 1 1 1 3 1 1 1 1 1 1 1 1 1 1 2 2